| time (UTC) | temp C | wind direction | speed KPH | gust KPH | rain 1hr cm | rain 24hr cm | rain mn cm | humidity % | barometer mb |
| 20260507014602 | 22 | 25 | 0.0 | 1.6 | 0.00 | 0.00 | 0.00 | 44 | 1014.9 |
| 20260507013103 | 22 | 89 | 0.0 | 3.2 | 0.00 | 0.00 | 0.00 | 44 | 1014.9 |
| 20260507011604 | 22 | 345 | 0.0 | 1.6 | 0.00 | 0.00 | 0.00 | 49 | 1015.0 |
| 20260507010104 | 22 | 19 | 0.0 | 3.2 | 0.00 | 0.00 | 0.00 | 48 | 1015.0 |
| 20260507004602 | 22 | 25 | 0.0 | 1.6 | 0.00 | 0.00 | 0.00 | 49 | 1015.0 |
| 20260507003102 | 22 | 46 | 4.8 | 4.8 | 0.00 | 0.00 | 0.00 | 42 | 1015.2 |
| 20260507001602 | 23 | 125 | 0.0 | 4.8 | 0.00 | 0.00 | 0.00 | 39 | 1015.1 |
| 20260506234603 | 23 | 150 | 0.0 | 3.2 | 0.00 | 0.00 | 0.00 | 42 | 1015.2 |
| 20260506233101 | 24 | 134 | 0.0 | 9.7 | 0.00 | 0.00 | 0.00 | 38 | 1015.2 |
| 20260506231602 | 25 | 122 | 0.0 | 6.4 | 0.00 | 0.00 | 0.00 | 35 | 1015.3 |
| 20260506224604 | 24 | 136 | 1.6 | 8.0 | 0.00 | 0.00 | 0.00 | 35 | 1015.7 |
| 20260506223102 | 23 | 139 | 1.6 | 9.7 | 0.00 | 0.00 | 0.00 | 36 | 1016.0 |
| 20260506221601 | 23 | 35 | 6.4 | 11.3 | 0.00 | 0.00 | 0.00 | 36 | 1016.3 |
| 20260506220105 | 23 | 110 | 0.0 | 8.0 | 0.00 | 0.00 | 0.00 | 36 | 1016.6 |
| 20260506214603 | 23 | 163 | 3.2 | 8.0 | 0.00 | 0.00 | 0.00 | 37 | 1016.8 |
| 20260506213106 | 22 | 56 | 3.2 | 8.0 | 0.00 | 0.00 | 0.00 | 36 | 1017.2 |
| 20260506211602 | 22 | 130 | 6.4 | 8.0 | 0.00 | 0.00 | 0.00 | 38 | 1017.3 |
| 20260506210104 | 22 | 115 | 0.0 | 9.7 | 0.00 | 0.00 | 0.00 | 37 | 1017.6 |
| 20260506204602 | 22 | 146 | 0.0 | 8.0 | 0.00 | 0.00 | 0.00 | 38 | 1017.7 |
| 20260506203102 | 21 | 195 | 1.6 | 4.8 | 0.00 | 0.00 | 0.00 | 41 | 1017.9 |
| 20260506201605 | 20 | 281 | 3.2 | 8.0 | 0.00 | 0.00 | 0.00 | 39 | 1018.1 |
| 20260506193106 | 20 | 111 | 0.0 | 6.4 | 0.00 | 0.00 | 0.00 | 37 | 1018.8 |
| 20260506184601 | 19 | 252 | 0.0 | 9.7 | 0.00 | 0.00 | 0.00 | 42 | 1019.3 |
| 20260506183102 | 18 | 44 | 4.8 | 8.0 | 0.00 | 0.00 | 0.00 | 39 | 1019.3 |
| 20260506181602 | 18 | 212 | 0.0 | 11.3 | 0.00 | 0.00 | 0.00 | 36 | 1019.5 |
| 20260506173104 | 17 | 127 | 3.2 | 8.0 | 0.00 | 0.00 | 0.00 | 36 | 1019.7 |
| 20260506171602 | 17 | 121 | 0.0 | 6.4 | 0.00 | 0.00 | 0.00 | 42 | 1019.7 |
| 20260506164603 | 16 | 108 | 0.0 | 8.0 | 0.00 | 0.00 | 0.00 | 43 | 1019.9 |
| 20260506163104 | 16 | 13 | 1.6 | 6.4 | 0.00 | 0.00 | 0.00 | 39 | 1020.0 |
| 20260506161602 | 16 | 58 | 0.0 | 11.3 | 0.00 | 0.00 | 0.00 | 42 | 1020.0 |
| 20260506154604 | 15 | 38 | 0.0 | 6.4 | 0.00 | 0.00 | 0.00 | 42 | 1019.8 |
| 20260506153102 | 15 | 132 | 3.2 | 8.0 | 0.00 | 0.00 | 0.00 | 47 | 1019.8 |
| 20260506151603 | 15 | 106 | 4.8 | 9.7 | 0.00 | 0.00 | 0.00 | 46 | 1019.7 |
| 20260506144603 | 14 | 118 | 0.0 | 1.6 | 0.00 | 0.00 | 0.00 | 57 | 1019.6 |
| 20260506143108 | 12 | 43 | 0.0 | 1.6 | 0.00 | 0.00 | 0.00 | 60 | 1019.4 |
| 20260506141604 | 11 | 345 | 0.0 | 1.6 | 0.00 | 0.00 | 0.00 | 63 | 1019.3 |
| 20260506134604 | 7 | 345 | 0.0 | 6.4 | 0.00 | 0.00 | 0.00 | 76 | 1018.8 |
| 20260506133102 | 7 | 19 | 3.2 | 6.4 | 0.00 | 0.00 | 0.00 | 77 | 1018.6 |
| 20260506124601 | 6 | 288 | 0.0 | 1.6 | 0.00 | 0.00 | 0.00 | 75 | 1017.6 |
| 20260506121602 | 8 | 354 | 4.8 | 8.0 | 0.00 | 0.00 | 0.00 | 68 | 1017.5 |
| 20260506120104 | 8 | 335 | 1.6 | 6.4 | 0.00 | 0.00 | 0.00 | 71 | 1017.4 |
| 20260506114602 | 7 | 333 | 1.6 | 6.4 | 0.00 | 0.00 | 0.00 | 74 | 1017.4 |
| 20260506113101 | 6 | 325 | 0.0 | 3.2 | 0.00 | 0.00 | 0.00 | 76 | 1017.5 |
| 20260506111604 | 6 | 336 | 1.6 | 4.8 | 0.00 | 0.00 | 0.00 | 78 | 1017.4 |
| 20260506110107 | 7 | 289 | 0.0 | 1.6 | 0.00 | 0.00 | 0.00 | 73 | 1017.3 |
| 20260506104604 | 6 | 333 | 0.0 | 1.6 | 0.00 | 0.00 | 0.00 | 74 | 1017.0 |
| 20260506103103 | 6 | 354 | 0.0 | 0.0 | 0.00 | 0.00 | 0.00 | 73 | 1016.7 |
| 20260506101601 | 7 | 334 | 0.0 | 1.6 | 0.00 | 0.00 | 0.00 | 70 | 1016.5 |
| 20260506094604 | 9 | 308 | 0.0 | 3.2 | 0.00 | 0.00 | 0.00 | 61 | 1016.1 |
| 20260506093102 | 9 | 290 | 0.0 | 3.2 | 0.00 | 0.00 | 0.00 | 61 | 1016.1 |
| 20260506091605 | 9 | 340 | 0.0 | 3.2 | 0.00 | 0.00 | 0.00 | 59 | 1016.0 |
| 20260506084602 | 10 | 326 | 0.0 | 6.4 | 0.00 | 0.00 | 0.00 | 57 | 1015.9 |
| 20260506083102 | 10 | 335 | 3.2 | 8.0 | 0.00 | 0.00 | 0.00 | 57 | 1015.8 |
| 20260506081602 | 9 | 332 | 3.2 | 3.2 | 0.00 | 0.00 | 0.00 | 59 | 1015.8 |
| 20260506080105 | 10 | 348 | 0.0 | 4.8 | 0.00 | 0.00 | 0.00 | 58 | 1015.6 |
| 20260506073102 | 9 | 332 | 1.6 | 9.7 | 0.00 | 0.00 | 0.00 | 60 | 1015.5 |
| 20260506061602 | 11 | 8 | 1.6 | 6.4 | 0.00 | 0.00 | 0.00 | 58 | 1014.7 |
| 20260506060104 | 11 | 341 | 1.6 | 8.0 | 0.00 | 0.00 | 0.00 | 60 | 1014.4 |
| 20260506050107 | 13 | 345 | 0.0 | 6.4 | 0.00 | 0.00 | 0.00 | 56 | 1013.8 |
| 20260506043102 | 13 | 9 | 3.2 | 8.0 | 0.00 | 0.00 | 0.00 | 54 | 1013.5 |
| 20260506041602 | 13 | 308 | 0.0 | 6.4 | 0.00 | 0.00 | 0.00 | 54 | 1013.3 |
| 20260506034601 | 14 | 294 | 6.4 | 8.0 | 0.00 | 0.00 | 0.00 | 52 | 1012.8 |
| 20260506033105 | 15 | 316 | 0.0 | 6.4 | 0.00 | 0.00 | 0.00 | 49 | 1012.6 |
| 20260506031602 | 18 | 286 | 0.0 | 20.9 | 0.00 | 0.00 | 0.00 | 42 | 1012.3 |
| 20260506024605 | 19 | 353 | 3.2 | 11.3 | 0.00 | 0.00 | 0.00 | 39 | 1011.9 |
| 20260506023105 | 20 | 39 | 0.0 | 14.5 | 0.00 | 0.00 | 0.00 | 38 | 1011.7 |
| 20260506021606 | 21 | 52 | 11.3 | 17.7 | 0.00 | 0.00 | 0.00 | 35 | 1011.4 |